Starlink 4390

operational
NORAD ID: 53653 Int'l Des: 2022-105 Owner: SPXS Country: US Constellation: starlink
LEOCIRCULARRETROGRADESSO

Starlink 4390について

説明を読み込み中...

リアルタイム位置

3D地球を読み込み中...

次回通過

高度履歴

Altitude vs Time

uPlot chart will show altitude changes over time

軌道要素

1 53653U 22105F 26035.66316630 .00000128 00000-0 14502-4 0 9996
2 53653 97.6013 277.8323 0003599 49.1499 311.0037 15.01261694188270
Epoch: Feb 4, 2026 • Age: 20 hours

現在のステータス

高度 582.5 km
速度 7.57 km/s
衛星直下点 -44.00°S, 134.02°E
打ち上げ日 Aug 31, 2022
運用期間 3.4 years
タイプ internet

技術仕様

分類 Payload
質量 300.00 kg
乾燥質量 290.00 kg
総質量 300.00 kg
長さ 0.20 m
直径 2.80 m
スパン 9.00 m
形状 Box + pan
製造者 SPXS
バスタイプ Starlink
フェーズステータス In Orbit
所有者/国 SPXS/US

大規模コンステレーション

Loading constellations...